Location: *
(51.0333°S, 178.4667°E)
Time: 02:31:34
(UTC+00:00)

Cosmos 1244 Rocket - Pass Details

Date: 15 November 2019
Orbit: 955 x 997 km, 82.9° (Epoch: 07 December)

Event Time Altitude Azimuth Distance (km) Brightness Sun altitude
Rises 09:52:24 0° 190° (S) 3,681 8.9 -15.8°
Reaches altitude 10° 09:54:56 10° 188° (S) 2,726 8.0 -16.0°
Maximum altitude 10:01:11 76° 101° (E) 1,001 4.5 -16.5°
Enters shadow 10:04:55 26° 19° (NNE) 1,818 5.3 -16.7°
